| time (UTC) | temp F | wind direction | speed knots | gust knots | rain 1hr in | rain 24hr in | rain mn in | humidity % | barometer mb |
| 20260509011623 | 76 | 225 | 5.2 | 7.0 | 0.00 | 0.00 | 0.00 | 26 | 1016.3 |
| 20260509010622 | 76 | 214 | 5.2 | 9.6 | 0.00 | 0.00 | 0.00 | 25 | 1016.2 |
| 20260509005620 | 76 | 205 | 7.0 | 13.0 | 0.00 | 0.00 | 0.00 | 25 | 1016.1 |
| 20260509004641 | 76 | 210 | 7.8 | 12.2 | 0.00 | 0.00 | 0.00 | 24 | 1016.2 |
| 20260509003634 | 77 | 204 | 6.1 | 8.7 | 0.00 | 0.00 | 0.00 | 23 | 1016.0 |
| 20260509002638 | 78 | 301 | 10.4 | 13.0 | 0.00 | 0.00 | 0.00 | 16 | 1016.2 |
| 20260509001629 | 78 | 282 | 6.1 | 10.4 | 0.00 | 0.00 | 0.00 | 17 | 1015.9 |
| 20260509000652 | 78 | 260 | 7.8 | 11.3 | 0.00 | 0.00 | 0.00 | 16 | 1016.1 |
| 20260508235625 | 78 | 299 | 9.6 | 13.9 | 0.00 | 0.00 | 0.00 | 15 | 1016.2 |
| 20260508234622 | 78 | 286 | 9.6 | 15.6 | 0.00 | 0.00 | 0.00 | 15 | 1016.1 |
| 20260508233620 | 79 | 322 | 8.7 | 10.4 | 0.00 | 0.00 | 0.00 | 14 | 1015.9 |
| 20260508232621 | 78 | 344 | 10.4 | 13.9 | 0.00 | 0.00 | 0.00 | 16 | 1016.1 |
| 20260508231636 | 75 | 202 | 8.7 | 13.9 | 0.00 | 0.00 | 0.00 | 23 | 1016.0 |
| 20260508230634 | 76 | 196 | 8.7 | 13.0 | 0.00 | 0.00 | 0.00 | 21 | 1015.8 |
| 20260508225631 | 76 | 211 | 10.4 | 13.9 | 0.00 | 0.00 | 0.00 | 21 | 1016.0 |
| 20260508224631 | 76 | 209 | 8.7 | 14.8 | 0.00 | 0.00 | 0.00 | 21 | 1016.1 |
| 20260508223647 | 75 | 210 | 7.0 | 9.6 | 0.00 | 0.00 | 0.00 | 22 | 1016.3 |
| 20260508222648 | 75 | 213 | 10.4 | 15.6 | 0.00 | 0.00 | 0.00 | 21 | 1016.3 |
| 20260508221625 | 75 | 181 | 3.5 | 5.2 | 0.00 | 0.00 | 0.00 | 23 | 1016.1 |
| 20260508220631 | 75 | 209 | 7.8 | 11.3 | 0.00 | 0.00 | 0.00 | 22 | 1016.2 |
| 20260508215619 | 76 | 219 | 8.7 | 13.0 | 0.00 | 0.00 | 0.00 | 23 | 1016.2 |
| 20260508214638 | 76 | 248 | 4.3 | 10.4 | 0.00 | 0.00 | 0.00 | 24 | 1016.2 |
| 20260508213654 | 76 | 224 | 6.1 | 13.9 | 0.00 | 0.00 | 0.00 | 25 | 1016.4 |
| 20260508212711 | 75 | 214 | 8.7 | 14.8 | 0.00 | 0.00 | 0.00 | 23 | 1016.4 |
| 20260508211628 | 74 | 218 | 9.6 | 15.6 | 0.00 | 0.00 | 0.00 | 24 | 1016.4 |
| 20260508210629 | 74 | 215 | 12.2 | 18.2 | 0.00 | 0.00 | 0.00 | 24 | 1016.3 |
| 20260508205625 | 74 | 212 | 9.6 | 14.8 | 0.00 | 0.00 | 0.00 | 25 | 1016.3 |
| 20260508204621 | 74 | 215 | 6.1 | 12.2 | 0.00 | 0.00 | 0.00 | 26 | 1016.3 |
| 20260508203622 | 73 | 228 | 5.2 | 8.7 | 0.00 | 0.00 | 0.00 | 28 | 1016.4 |
| 20260508202623 | 72 | 214 | 9.6 | 13.0 | 0.00 | 0.00 | 0.00 | 27 | 1016.3 |
| 20260508201640 | 72 | 223 | 8.7 | 13.0 | 0.00 | 0.00 | 0.00 | 28 | 1016.4 |
| 20260508200634 | 72 | 229 | 7.0 | 11.3 | 0.00 | 0.00 | 0.00 | 28 | 1016.6 |
| 20260508195631 | 71 | 221 | 8.7 | 13.0 | 0.00 | 0.00 | 0.00 | 26 | 1016.5 |
| 20260508194629 | 71 | 217 | 6.1 | 11.3 | 0.00 | 0.00 | 0.00 | 27 | 1016.5 |
| 20260508193650 | 71 | 229 | 7.0 | 9.6 | 0.00 | 0.00 | 0.00 | 28 | 1016.3 |
| 20260508192644 | 71 | 211 | 6.1 | 8.7 | 0.00 | 0.00 | 0.00 | 28 | 1016.3 |
| 20260508191624 | 71 | 208 | 6.1 | 8.7 | 0.00 | 0.00 | 0.00 | 28 | 1016.5 |
| 20260508190622 | 72 | 266 | 6.1 | 9.6 | 0.00 | 0.00 | 0.00 | 28 | 1016.5 |
| 20260508185619 | 71 | 207 | 6.1 | 12.2 | 0.00 | 0.00 | 0.00 | 28 | 1016.6 |
| 20260508184655 | 71 | 196 | 8.7 | 9.6 | 0.00 | 0.00 | 0.00 | 29 | 1016.8 |
| 20260508183634 | 70 | 215 | 7.8 | 10.4 | 0.00 | 0.00 | 0.00 | 29 | 1016.7 |
| 20260508182635 | 69 | 203 | 6.1 | 7.8 | 0.00 | 0.00 | 0.00 | 31 | 1016.9 |
| 20260508181627 | 69 | 208 | 8.7 | 12.2 | 0.00 | 0.00 | 0.00 | 31 | 1016.9 |
| 20260508180627 | 68 | 225 | 4.3 | 7.0 | 0.00 | 0.00 | 0.00 | 34 | 1016.9 |
| 20260508175630 | 67 | 210 | 7.0 | 13.0 | 0.00 | 0.00 | 0.00 | 39 | 1016.9 |
| 20260508174643 | 67 | 217 | 7.8 | 10.4 | 0.00 | 0.00 | 0.00 | 37 | 1016.9 |
| 20260508173622 | 65 | 202 | 8.7 | 10.4 | 0.00 | 0.00 | 0.00 | 43 | 1016.9 |
| 20260508172623 | 64 | 202 | 6.1 | 9.6 | 0.00 | 0.00 | 0.00 | 46 | 1016.9 |
| 20260508171658 | 63 | 200 | 5.2 | 6.1 | 0.00 | 0.00 | 0.00 | 49 | 1016.9 |
| 20260508170633 | 64 | 200 | 6.1 | 7.8 | 0.00 | 0.00 | 0.00 | 48 | 1016.8 |
| 20260508165632 | 64 | 221 | 5.2 | 7.0 | 0.00 | 0.00 | 0.00 | 45 | 1016.7 |
| 20260508164632 | 64 | 207 | 5.2 | 9.6 | 0.00 | 0.00 | 0.00 | 46 | 1016.7 |
| 20260508163629 | 63 | 219 | 7.0 | 8.7 | 0.00 | 0.00 | 0.00 | 42 | 1016.7 |
| 20260508162628 | 63 | 198 | 5.2 | 10.4 | 0.00 | 0.00 | 0.00 | 45 | 1016.6 |
| 20260508161621 | 62 | 216 | 11.3 | 17.4 | 0.00 | 0.00 | 0.00 | 49 | 1016.7 |
| 20260508160618 | 61 | 208 | 6.1 | 13.0 | 0.00 | 0.00 | 0.00 | 50 | 1016.5 |
| 20260508155643 | 60 | 208 | 10.4 | 13.0 | 0.00 | 0.00 | 0.00 | 49 | 1016.6 |
| 20260508154634 | 60 | 210 | 6.1 | 13.9 | 0.00 | 0.00 | 0.00 | 49 | 1016.5 |
| 20260508153654 | 59 | 218 | 8.7 | 11.3 | 0.00 | 0.00 | 0.00 | 50 | 1016.5 |
| 20260508152631 | 59 | 218 | 7.8 | 12.2 | 0.00 | 0.00 | 0.00 | 50 | 1016.3 |
| 20260508151629 | 59 | 206 | 6.1 | 10.4 | 0.00 | 0.00 | 0.00 | 50 | 1016.5 |
| 20260508150627 | 58 | 214 | 8.7 | 13.0 | 0.00 | 0.00 | 0.00 | 51 | 1016.1 |
| 20260508145626 | 58 | 219 | 7.8 | 9.6 | 0.00 | 0.00 | 0.00 | 51 | 1016.0 |
| 20260508144623 | 57 | 213 | 7.0 | 12.2 | 0.00 | 0.00 | 0.00 | 52 | 1016.2 |
| 20260508143622 | 57 | 211 | 8.7 | 11.3 | 0.00 | 0.00 | 0.00 | 51 | 1016.1 |
| 20260508142637 | 57 | 219 | 6.1 | 9.6 | 0.00 | 0.00 | 0.00 | 51 | 1016.1 |
| 20260508141640 | 58 | 195 | 6.1 | 9.6 | 0.00 | 0.00 | 0.00 | 48 | 1016.1 |
| 20260508140635 | 56 | 203 | 9.6 | 16.5 | 0.00 | 0.00 | 0.00 | 52 | 1015.8 |
| 20260508135636 | 56 | 205 | 12.2 | 15.6 | 0.00 | 0.00 | 0.00 | 51 | 1015.6 |
| 20260508134632 | 57 | 204 | 5.2 | 9.6 | 0.00 | 0.00 | 0.00 | 51 | 1015.5 |
| 20260508133628 | 56 | 206 | 7.8 | 12.2 | 0.00 | 0.00 | 0.00 | 51 | 1015.6 |
| 20260508132625 | 56 | 220 | 10.4 | 13.0 | 0.00 | 0.00 | 0.00 | 50 | 1015.2 |
| 20260508131643 | 56 | 226 | 7.8 | 13.0 | 0.00 | 0.00 | 0.00 | 49 | 1015.3 |
| 20260508130619 | 56 | 208 | 9.6 | 16.5 | 0.00 | 0.00 | 0.00 | 47 | 1015.1 |
| 20260508125637 | 56 | 214 | 11.3 | 16.5 | 0.00 | 0.00 | 0.00 | 48 | 1015.2 |
| 20260508124637 | 55 | 212 | 7.0 | 11.3 | 0.00 | 0.00 | 0.00 | 48 | 1015.2 |
| 20260508123634 | 56 | 220 | 11.3 | 14.8 | 0.00 | 0.00 | 0.00 | 48 | 1014.9 |
| 20260508122634 | 56 | 212 | 12.2 | 15.6 | 0.00 | 0.00 | 0.00 | 48 | 1015.0 |
| 20260508121630 | 56 | 210 | 11.3 | 16.5 | 0.00 | 0.00 | 0.00 | 48 | 1015.0 |
| 20260508120625 | 56 | 204 | 7.0 | 12.2 | 0.00 | 0.00 | 0.00 | 47 | 1015.0 |
| 20260508115644 | 56 | 198 | 9.6 | 12.2 | 0.00 | 0.00 | 0.00 | 46 | 1015.1 |
| 20260508114626 | 57 | 203 | 13.0 | 16.5 | 0.00 | 0.00 | 0.00 | 44 | 1015.1 |
| 20260508113619 | 56 | 215 | 7.8 | 13.0 | 0.00 | 0.00 | 0.00 | 45 | 1015.1 |
| 20260508112656 | 56 | 223 | 7.0 | 10.4 | 0.00 | 0.00 | 0.00 | 46 | 1014.9 |
| 20260508111644 | 56 | 216 | 8.7 | 12.2 | 0.00 | 0.00 | 0.00 | 45 | 1015.0 |
| 20260508110636 | 56 | 213 | 7.0 | 10.4 | 0.00 | 0.00 | 0.00 | 45 | 1014.7 |
| 20260508105628 | 56 | 220 | 13.9 | 16.5 | 0.00 | 0.00 | 0.00 | 45 | 1014.8 |
| 20260508104626 | 56 | 210 | 11.3 | 14.8 | 0.00 | 0.00 | 0.00 | 44 | 1014.7 |
| 20260508103628 | 56 | 222 | 8.7 | 16.5 | 0.00 | 0.00 | 0.00 | 43 | 1014.7 |
| 20260508102621 | 57 | 212 | 10.4 | 17.4 | 0.00 | 0.00 | 0.00 | 42 | 1014.8 |
| 20260508101622 | 56 | 214 | 10.4 | 13.9 | 0.00 | 0.00 | 0.00 | 43 | 1014.6 |
| 20260508100637 | 57 | 220 | 8.7 | 12.2 | 0.00 | 0.00 | 0.00 | 40 | 1014.6 |
| 20260508095634 | 57 | 215 | 7.8 | 10.4 | 0.00 | 0.00 | 0.00 | 41 | 1014.5 |
| 20260508094656 | 57 | 208 | 8.7 | 11.3 | 0.00 | 0.00 | 0.00 | 40 | 1014.7 |
| 20260508093630 | 57 | 216 | 8.7 | 11.3 | 0.00 | 0.00 | 0.00 | 39 | 1014.7 |
| 20260508092632 | 57 | 217 | 10.4 | 13.0 | 0.00 | 0.00 | 0.00 | 38 | 1014.7 |
| 20260508091625 | 58 | 221 | 10.4 | 13.9 | 0.00 | 0.00 | 0.00 | 36 | 1014.6 |
| 20260508090624 | 58 | 212 | 8.7 | 13.0 | 0.00 | 0.00 | 0.00 | 34 | 1014.8 |
| 20260508085620 | 58 | 212 | 7.0 | 9.6 | 0.00 | 0.00 | 0.00 | 33 | 1014.7 |
| 20260508084622 | 59 | 198 | 5.2 | 10.4 | 0.00 | 0.00 | 0.00 | 31 | 1014.9 |
| 20260508083635 | 59 | 213 | 6.1 | 8.7 | 0.00 | 0.00 | 0.00 | 30 | 1014.7 |
| 20260508082635 | 61 | 217 | 11.3 | 16.5 | 0.00 | 0.00 | 0.00 | 27 | 1014.7 |
| 20260508081634 | 60 | 188 | 7.0 | 10.4 | 0.00 | 0.00 | 0.00 | 27 | 1014.7 |
| 20260508080631 | 60 | 194 | 6.1 | 10.4 | 0.00 | 0.00 | 0.00 | 25 | 1014.5 |
| 20260508075627 | 61 | 206 | 6.1 | 9.6 | 0.00 | 0.00 | 0.00 | 25 | 1014.9 |
| 20260508074624 | 61 | 206 | 5.2 | 9.6 | 0.00 | 0.00 | 0.00 | 26 | 1014.8 |
| 20260508073624 | 62 | 211 | 5.2 | 9.6 | 0.00 | 0.00 | 0.00 | 27 | 1014.8 |
| 20260508072620 | 63 | 222 | 1.7 | 3.5 | 0.00 | 0.00 | 0.00 | 26 | 1014.7 |
| 20260508071617 | 63 | 182 | 2.6 | 4.3 | 0.00 | 0.00 | 0.00 | 24 | 1014.9 |
| 20260508070639 | 64 | 202 | 4.3 | 6.1 | 0.00 | 0.00 | 0.00 | 25 | 1014.5 |
| 20260508065633 | 64 | 259 | 4.3 | 7.8 | 0.00 | 0.00 | 0.00 | 25 | 1014.7 |
| 20260508064632 | 64 | 221 | 4.3 | 7.0 | 0.00 | 0.00 | 0.00 | 26 | 1014.1 |
| 20260508063632 | 64 | 201 | 7.0 | 10.4 | 0.00 | 0.00 | 0.00 | 25 | 1014.0 |
| 20260508062626 | 64 | 214 | 5.2 | 12.2 | 0.00 | 0.00 | 0.00 | 26 | 1014.0 |
| 20260508061624 | 65 | 212 | 7.8 | 10.4 | 0.00 | 0.00 | 0.00 | 26 | 1013.8 |
| 20260508060630 | 65 | 217 | 10.4 | 14.8 | 0.00 | 0.00 | 0.00 | 26 | 1013.8 |
| 20260508055622 | 65 | 206 | 6.1 | 10.4 | 0.00 | 0.00 | 0.00 | 28 | 1014.0 |
| 20260508054622 | 66 | 214 | 7.8 | 11.3 | 0.00 | 0.00 | 0.00 | 28 | 1013.9 |
| 20260508053635 | 66 | 212 | 7.8 | 11.3 | 0.00 | 0.00 | 0.00 | 28 | 1014.0 |
| 20260508052656 | 66 | 217 | 12.2 | 16.5 | 0.00 | 0.00 | 0.00 | 27 | 1014.1 |
| 20260508051630 | 66 | 216 | 7.8 | 16.5 | 0.00 | 0.00 | 0.00 | 26 | 1013.9 |
| 20260508050631 | 66 | 209 | 9.6 | 13.0 | 0.00 | 0.00 | 0.00 | 27 | 1014.1 |
| 20260508045649 | 67 | 203 | 6.1 | 8.7 | 0.00 | 0.00 | 0.00 | 28 | 1013.9 |
| 20260508044623 | 67 | 211 | 5.2 | 10.4 | 0.00 | 0.00 | 0.00 | 29 | 1014.1 |
| 20260508043624 | 68 | 199 | 6.1 | 8.7 | 0.00 | 0.00 | 0.00 | 30 | 1014.1 |
| 20260508042626 | 69 | 218 | 2.6 | 4.3 | 0.00 | 0.00 | 0.00 | 33 | 1014.1 |
| 20260508041639 | 70 | 232 | 1.7 | 2.6 | 0.00 | 0.00 | 0.00 | 32 | 1014.0 |
| 20260508040637 | 70 | 189 | 3.5 | 5.2 | 0.00 | 0.00 | 0.00 | 30 | 1014.0 |
| 20260508035633 | 71 | 86 | 0.9 | 1.7 | 0.00 | 0.00 | 0.00 | 30 | 1014.1 |
| 20260508034635 | 71 | 185 | 0.9 | 2.6 | 0.00 | 0.00 | 0.00 | 28 | 1013.9 |
| 20260508033627 | 70 | 188 | 1.7 | 2.6 | 0.00 | 0.00 | 0.00 | 34 | 1013.9 |
| 20260508032629 | 71 | 192 | 0.9 | 1.7 | 0.00 | 0.00 | 0.00 | 34 | 1013.9 |
| 20260508031626 | 71 | 185 | 1.7 | 3.5 | 0.00 | 0.00 | 0.00 | 33 | 1014.0 |
| 20260508030620 | 72 | 177 | 0.9 | 1.7 | 0.00 | 0.00 | 0.00 | 33 | 1013.8 |
| 20260508025621 | 72 | 184 | 1.7 | 1.7 | 0.00 | 0.00 | 0.00 | 33 | 1013.9 |
| 20260508024637 | 73 | 202 | 1.7 | 2.6 | 0.00 | 0.00 | 0.00 | 32 | 1013.8 |
| 20260508023640 | 73 | 212 | 2.6 | 3.5 | 0.00 | 0.00 | 0.00 | 31 | 1014.0 |
| 20260508022630 | 73 | 219 | 1.7 | 3.5 | 0.00 | 0.00 | 0.00 | 32 | 1014.0 |
| 20260508021634 | 74 | 210 | 1.7 | 2.6 | 0.00 | 0.00 | 0.00 | 31 | 1014.0 |
| 20260508020630 | 74 | 197 | 2.6 | 3.5 | 0.00 | 0.00 | 0.00 | 30 | 1014.0 |
| 20260508015630 | 75 | 201 | 2.6 | 3.5 | 0.00 | 0.00 | 0.00 | 29 | 1014.2 |
| 20260508014622 | 75 | 188 | 4.3 | 5.2 | 0.00 | 0.00 | 0.00 | 26 | 1014.0 |
| 20260508013620 | 76 | 184 | 4.3 | 5.2 | 0.00 | 0.00 | 0.00 | 26 | 1013.9 |
| 20260508012621 | 77 | 202 | 3.5 | 4.3 | 0.00 | 0.00 | 0.00 | 24 | 1014.0 |